Torna al catalogo

FALCON 9 R/B

AttivoHEO
NORAD 54260·ROCKET BODY·🇺🇸 United States

Lanciato Nov 23, 2022 da Cape Canaveral Space Force Station

Loading…

Prossimi Passaggi (prossime 24 ore)

TLE

AggiornatoSource: Space-Track

Epoca: Sep 10, 2026, 11:38 UTC

1 54260U 22157B   26253.48534256  .00001919  00000-0  16998-2 0  9994
2 54260  21.7294 317.3103 7744187  56.2531 354.5181  1.71698204 20841

Traccia FALCON 9 R/B in tempo reale con AllMySat

Download on the App Store